CW8508 Weather Reports


Display with metric or nautical units.
time (UTC)temp
F
wind
direction
speed
MPH
gust
MPH
rain 1hr
in
rain 24hr
in
rain mn
in
humidity
%
barometer
mb
20210729044010 76 244 0.0 0.0 0.00 0.00 0.00 51 1014.8
20210729043510 76 245 0.0 0.0 0.00 0.00 0.00 50 1014.7
20210729043011 76 245 0.0 0.0 0.00 0.00 0.00 50 1014.8
20210729042511 77 245 0.0 0.0 0.00 0.00 0.00 49 1014.6
20210729042010 77 242 0.0 0.0 0.00 0.00 0.00 48 1014.6
20210729041510 77 247 0.0 1.0 0.00 0.00 0.00 46 1014.5
20210729041010 77 247 0.0 1.0 0.00 0.00 0.00 46 1014.5
20210729040511 78 248 0.0 1.0 0.00 0.00 0.00 45 1014.4
20210729040010 78 247 0.0 0.0 0.00 0.00 0.00 45 1014.4
20210729035510 79 247 0.0 0.0 0.00 0.00 0.00 44 1014.4
20210729035011 79 247 0.0 0.0 0.00 0.00 0.00 43 1014.3
20210729034511 79 248 0.0 1.0 0.00 0.00 0.00 43 1014.2
20210729034010 80 247 0.0 1.0 0.00 0.00 0.00 43 1014.2
20210729033511 80 248 0.0 1.0 0.00 0.00 0.00 43 1014.2
20210729033010 80 247 0.0 2.0 0.00 0.00 0.00 42 1014.1
20210729032510 80 269 1.0 2.0 0.00 0.00 0.00 41 1014.0
20210729032010 81 267 0.0 1.0 0.00 0.00 0.00 41 1014.0
20210729031510 81 267 0.0 3.0 0.00 0.00 0.00 40 1014.0
20210729031011 82 267 1.0 3.0 0.00 0.00 0.00 39 1013.9
20210729030510 82 265 1.0 3.0 0.00 0.00 0.00 38 1013.9
20210729030010 82 252 0.0 2.0 0.00 0.00 0.00 38 1013.9
20210729025510 83 269 0.0 3.0 0.00 0.00 0.00 39 1013.9
20210729025010 83 250 1.0 3.0 0.00 0.00 0.00 38 1013.8
20210729024510 84 279 2.0 3.0 0.00 0.00 0.00 38 1013.8
20210729024010 84 269 1.0 4.0 0.00 0.00 0.00 37 1013.8
20210729023510 85 257 0.0 4.0 0.00 0.00 0.00 36 1013.8
20210729023010 85 274 2.0 4.0 0.00 0.00 0.00 36 1013.8
20210729022510 86 271 0.0 4.0 0.00 0.00 0.00 35 1013.8
20210729022010 87 288 4.0 6.0 0.00 0.00 0.00 34 1013.8
20210729021510 88 269 2.0 6.0 0.00 0.00 0.00 34 1013.6
20210729021011 88 271 2.0 6.0 0.00 0.00 0.00 33 1013.7
20210729020511 89 256 1.0 7.0 0.00 0.00 0.00 32 1013.6
20210729020011 90 273 4.0 7.0 0.00 0.00 0.00 31 1013.6
20210729015511 91 245 3.0 5.0 0.00 0.00 0.00 30 1013.7
20210729015011 92 277 2.0 6.0 0.00 0.00 0.00 31 1013.7
20210729014511 92 286 2.0 6.0 0.00 0.00 0.00 31 1013.7
20210729014011 92 247 2.0 7.0 0.00 0.00 0.00 30 1013.6
20210729013510 93 277 1.0 7.0 0.00 0.00 0.00 30 1013.6
20210729013011 93 270 2.0 8.0 0.00 0.00 0.00 29 1013.6
20210729012510 94 242 3.0 8.0 0.00 0.00 0.00 29 1013.7
20210729012011 94 270 1.0 6.0 0.00 0.00 0.00 27 1013.6
20210729011511 94 263 4.0 6.0 0.00 0.00 0.00 26 1013.6
20210729011011 95 233 0.0 6.0 0.00 0.00 0.00 26 1013.5
20210729010510 95 254 5.0 7.0 0.00 0.00 0.00 27 1013.5
20210729010010 95 269 2.0 7.0 0.00 0.00 0.00 28 1013.4
20210729005510 95 262 4.0 5.0 0.00 0.00 0.00 29 1013.5
20210729005011 95 257 2.0 9.0 0.00 0.00 0.00 27 1013.5
20210729004511 96 276 3.0 9.0 0.00 0.00 0.00 27 1013.5
20210729004010 96 252 5.0 7.0 0.00 0.00 0.00 26 1013.5
20210729003511 96 275 3.0 8.0 0.00 0.00 0.00 26 1013.6
20210729003010 96 284 4.0 8.0 0.00 0.00 0.00 26 1013.7
20210729002511 97 272 3.0 9.0 0.00 0.00 0.00 26 1013.7
20210729002011 97 212 4.0 9.0 0.00 0.00 0.00 26 1013.6
20210729001511 97 271 3.0 8.0 0.00 0.00 0.00 25 1013.6
20210729001010 97 251 7.0 8.0 0.00 0.00 0.00 24 1013.7
20210729000510 97 250 3.0 7.0 0.00 0.00 0.00 24 1013.7
20210729000011 98 232 6.0 9.0 0.00 0.00 0.00 24 1013.7
20210728235510 98 289 3.0 10.0 0.00 0.00 0.00 24 1013.8
20210728235010 98 299 4.0 10.0 0.00 0.00 0.00 24 1013.8
20210728234510 98 258 5.0 9.0 0.00 0.00 0.00 24 1013.8
20210728234010 98 266 1.0 9.0 0.00 0.00 0.00 24 1013.8
20210728233510 98 275 3.0 9.0 0.00 0.00 0.00 24 1013.9
20210728233011 98 248 1.0 10.0 0.00 0.00 0.00 25 1013.8
20210728232511 97 278 4.0 10.0 0.00 0.00 0.00 26 1013.9
20210728232011 97 274 4.0 9.0 0.00 0.00 0.00 26 1014.0
20210728231511 98 259 1.0 9.0 0.00 0.00 0.00 24 1014.0
20210728231010 98 281 2.0 8.0 0.00 0.00 0.00 24 1014.0
20210728230510 98 287 6.0 8.0 0.00 0.00 0.00 25 1014.1
20210728230011 98 289 3.0 10.0 0.00 0.00 0.00 26 1014.1
20210728225511 98 266 2.0 10.0 0.00 0.00 0.00 25 1014.1
20210728225010 97 299 3.0 10.0 0.00 0.00 0.00 26 1014.1
20210728224511 97 281 3.0 10.0 0.00 0.00 0.00 26 1014.2
20210728224010 98 298 4.0 11.0 0.00 0.00 0.00 26 1014.1
20210728223511 97 272 3.0 11.0 0.00 0.00 0.00 26 1014.2
20210728223011 97 293 2.0 8.0 0.00 0.00 0.00 26 1014.2
20210728222511 97 284 3.0 11.0 0.00 0.00 0.00 26 1014.3
20210728222011 97 250 5.0 11.0 0.00 0.00 0.00 26 1014.4
20210728221510 97 288 4.0 9.0 0.00 0.00 0.00 26 1014.4
20210728221011 97 253 3.0 12.0 0.00 0.00 0.00 27 1014.5
20210728220510 97 242 6.0 12.0 0.00 0.00 0.00 27 1014.6
20210728220010 97 277 4.0 11.0 0.00 0.00 0.00 27 1014.6
20210728215511 97 249 11.0 11.0 0.00 0.00 0.00 27 1014.7
20210728215011 96 277 5.0 11.0 0.00 0.00 0.00 27 1014.7
20210728214510 96 269 7.0 11.0 0.00 0.00 0.00 27 1014.9
20210728214010 96 275 4.0 10.0 0.00 0.00 0.00 26 1014.9
20210728213510 96 264 2.0 10.0 0.00 0.00 0.00 27 1014.9
20210728213010 97 297 3.0 10.0 0.00 0.00 0.00 26 1015.0
20210728212511 97 226 0.0 10.0 0.00 0.00 0.00 29 1015.2
20210728212011 96 258 4.0 11.0 0.00 0.00 0.00 28 1015.2
20210728211511 96 300 4.0 11.0 0.00 0.00 0.00 29 1015.2
20210728211011 96 244 2.0 9.0 0.00 0.00 0.00 31 1015.2
20210728210511 96 265 5.0 9.0 0.00 0.00 0.00 31 1015.3
20210728210010 95 259 6.0 8.0 0.00 0.00 0.00 30 1015.3
20210728205510 95 257 4.0 11.0 0.00 0.00 0.00 31 1015.3
20210728205011 95 272 2.0 14.0 0.00 0.00 0.00 32 1015.4
20210728204510 95 260 6.0 14.0 0.00 0.00 0.00 31 1015.4
20210728204011 95 190 2.0 11.0 0.00 0.00 0.00 32 1015.4
20210728203510 95 293 2.0 13.0 0.00 0.00 0.00 32 1015.5
20210728203010 95 259 8.0 13.0 0.00 0.00 0.00 33 1015.5
20210728202511 95 261 3.0 11.0 0.00 0.00 0.00 34 1015.5
20210728202011 95 202 2.0 11.0 0.00 0.00 0.00 34 1015.6
20210728201510 95 257 5.0 9.0 0.00 0.00 0.00 33 1015.6
20210728201010 94 265 5.0 10.0 0.00 0.00 0.00 32 1015.6
20210728200511 94 271 3.0 14.0 0.00 0.00 0.00 32 1015.7
20210728200010 94 223 2.0 14.0 0.00 0.00 0.00 32 1015.7
20210728195511 93 260 5.0 12.0 0.00 0.00 0.00 32 1015.7
20210728195011 93 263 4.0 10.0 0.00 0.00 0.00 32 1015.8
20210728194511 93 263 2.0 10.0 0.00 0.00 0.00 32 1015.8
20210728194010 93 215 6.0 10.0 0.00 0.00 0.00 32 1015.7
20210728193511 93 273 5.0 8.0 0.00 0.00 0.00 33 1015.8
20210728193011 92 265 3.0 8.0 0.00 0.00 0.00 33 1015.8
20210728192511 92 273 1.0 7.0 0.00 0.00 0.00 34 1015.9
20210728192010 93 290 4.0 10.0 0.00 0.00 0.00 34 1015.9
20210728191511 92 259 3.0 10.0 0.00 0.00 0.00 34 1015.9
20210728191011 92 248 4.0 9.0 0.00 0.00 0.00 35 1015.9
20210728190511 92 321 2.0 9.0 0.00 0.00 0.00 36 1015.9
20210728190011 92 202 0.0 9.0 0.00 0.00 0.00 35 1016.0
20210728185510 91 217 1.0 9.0 0.00 0.00 0.00 36 1016.1
20210728185011 91 192 0.0 9.0 0.00 0.00 0.00 37 1016.1
20210728184511 91 265 0.0 8.0 0.00 0.00 0.00 38 1016.2
20210728184010 90 213 0.0 8.0 0.00 0.00 0.00 39 1016.2
20210728183510 90 250 0.0 8.0 0.00 0.00 0.00 38 1016.2
20210728183010 90 207 4.0 8.0 0.00 0.00 0.00 39 1016.2
20210728182512 89 196 1.0 8.0 0.00 0.00 0.00 41 1016.2
20210728182011 89 213 4.0 9.0 0.00 0.00 0.00 41 1016.2
20210728181510 89 196 0.0 9.0 0.00 0.00 0.00 43 1016.2
20210728181011 88 209 0.0 6.0 0.00 0.00 0.00 43 1016.2
20210728180511 88 198 0.0 7.0 0.00 0.00 0.00 44 1016.1
20210728180011 87 231 0.0 7.0 0.00 0.00 0.00 44 1016.1
20210728175511 87 215 7.0 6.0 0.00 0.00 0.00 45 1016.2
20210728175011 86 195 0.0 6.0 0.00 0.00 0.00 46 1016.2
20210728174511 86 179 0.0 6.0 0.00 0.00 0.00 46 1016.2
20210728174011 86 206 0.0 6.0 0.00 0.00 0.00 48 1016.2
20210728173511 85 194 0.0 6.0 0.00 0.00 0.00 51 1016.3
20210728173011 85 232 0.0 4.0 0.00 0.00 0.00 50 1016.2
20210728172511 84 145 0.0 4.0 0.00 0.00 0.00 52 1016.3
20210728172010 84 234 0.0 4.0 0.00 0.00 0.00 53 1016.3
20210728171511 83 198 0.0 4.0 0.00 0.00 0.00 54 1016.3
20210728171010 83 257 0.0 4.0 0.00 0.00 0.00 54 1016.3
20210728170511 82 260 0.0 4.0 0.00 0.00 0.00 55 1016.2
20210728170011 82 221 0.0 4.0 0.00 0.00 0.00 56 1016.3
20210728165511 82 227 0.0 4.0 0.00 0.00 0.00 57 1016.2
20210728165011 81 207 0.0 4.0 0.00 0.00 0.00 57 1016.2
20210728164510 81 202 0.0 0.0 0.00 0.00 0.00 57 1016.2
20210728164012 80 203 0.0 0.0 0.00 0.00 0.00 58 1016.3
20210728163511 80 202 0.0 0.0 0.00 0.00 0.00 59 1016.3
20210728163011 80 198 0.0 0.0 0.00 0.00 0.00 61 1016.4
20210728162511 79 197 0.0 0.0 0.00 0.00 0.00 62 1016.4
20210728162011 78 202 0.0 0.0 0.00 0.00 0.00 63 1016.4
20210728161511 78 202 0.0 0.0 0.00 0.00 0.00 65 1016.4
20210728161011 77 202 0.0 0.0 0.00 0.00 0.00 67 1016.5
20210728160510 77 202 0.0 0.0 0.00 0.00 0.00 68 1016.5
20210728160011 76 214 0.0 0.0 0.00 0.00 0.00 69 1016.4
20210728155511 76 213 0.0 0.0 0.00 0.00 0.00 69 1016.5
20210728155011 76 214 0.0 0.0 0.00 0.00 0.00 70 1016.5
20210728154511 75 214 0.0 0.0 0.00 0.00 0.00 71 1016.6
20210728154011 75 213 0.0 0.0 0.00 0.00 0.00 74 1016.4
20210728153511 74 213 0.0 0.0 0.00 0.00 0.00 76 1016.4
20210728153011 73 213 0.0 0.0 0.00 0.00 0.00 77 1016.5
20210728152511 73 213 0.0 0.0 0.00 0.00 0.00 78 1016.4
20210728152011 72 213 0.0 0.0 0.00 0.00 0.00 80 1016.4
20210728151514 72 213 0.0 0.0 0.00 0.00 0.00 82 1016.4
20210728151012 71 213 0.0 0.0 0.00 0.00 0.00 83 1016.4
20210728150511 70 213 0.0 0.0 0.00 0.00 0.00 83 1016.3
20210728150011 70 213 0.0 0.0 0.00 0.00 0.00 85 1016.4
20210728145511 69 213 0.0 0.0 0.00 0.00 0.00 86 1016.4
20210728145011 68 214 0.0 0.0 0.00 0.00 0.00 87 1016.4
20210728144511 68 214 0.0 0.0 0.00 0.00 0.00 87 1016.4
20210728144011 67 214 0.0 0.0 0.00 0.00 0.00 88 1016.4
20210728143511 67 214 0.0 0.0 0.00 0.00 0.00 88 1016.5
20210728143010 66 214 0.0 0.0 0.00 0.00 0.00 88 1016.4
20210728142511 66 214 0.0 0.0 0.00 0.00 0.00 87 1016.3
20210728142011 65 214 0.0 0.0 0.00 0.00 0.00 87 1016.4
20210728141511 65 214 0.0 0.0 0.00 0.00 0.00 87 1016.4
20210728141011 65 214 0.0 0.0 0.00 0.00 0.00 87 1016.4
20210728140512 65 214 0.0 0.0 0.00 0.00 0.00 86 1016.4
20210728140011 64 214 0.0 0.0 0.00 0.00 0.00 86 1016.4
20210728135512 64 214 0.0 0.0 0.00 0.00 0.00 85 1016.5
20210728135010 64 214 0.0 0.0 0.00 0.00 0.00 85 1016.4
20210728134512 64 214 0.0 0.0 0.00 0.00 0.00 85 1016.4
20210728134011 64 214 0.0 0.0 0.00 0.00 0.00 85 1016.4
20210728133511 64 214 0.0 0.0 0.00 0.00 0.00 85 1016.3
20210728133011 64 214 0.0 0.0 0.00 0.00 0.00 85 1016.1
20210728132511 65 214 0.0 0.0 0.00 0.00 0.00 85 1016.2
20210728132011 64 214 0.0 0.0 0.00 0.00 0.00 85 1016.2
20210728131511 65 214 0.0 0.0 0.00 0.00 0.00 85 1016.1
20210728131011 65 214 0.0 0.0 0.00 0.00 0.00 85 1016.1
20210728122011 65 241 0.0 0.0 0.00 0.00 0.00 84 1015.9
20210728121511 65 241 0.0 0.0 0.00 0.00 0.00 84 1015.8
20210728121011 65 241 0.0 0.0 0.00 0.00 0.00 84 1015.8
20210728120511 65 241 0.0 0.0 0.00 0.00 0.00 83 1015.7
20210728120011 65 241 0.0 0.0 0.00 0.00 0.00 83 1015.7
20210728115511 65 241 0.0 0.0 0.00 0.00 0.00 84 1015.7
20210728115011 66 241 0.0 0.0 0.00 0.00 0.00 83 1015.6
20210728114511 66 241 0.0 0.0 0.00 0.00 0.00 84 1015.6
20210728114011 66 241 0.0 0.0 0.00 0.00 0.00 83 1015.7
20210728113511 66 241 0.0 0.0 0.00 0.00 0.00 83 1015.7
20210728113011 66 241 0.0 0.0 0.00 0.00 0.00 83 1015.5
20210728112511 66 241 0.0 0.0 0.00 0.00 0.00 83 1015.5
20210728112011 66 241 0.0 1.0 0.00 0.00 0.00 83 1015.5
20210728111511 66 241 0.0 1.0 0.00 0.00 0.00 83 1015.5
20210728111011 66 241 0.0 0.0 0.00 0.00 0.00 83 1015.5
20210728110511 66 241 0.0 0.0 0.00 0.00 0.00 82 1015.5
20210728110011 66 241 0.0 0.0 0.00 0.00 0.00 82 1015.6
20210728105511 66 241 0.0 0.0 0.00 0.00 0.00 82 1015.5
20210728105011 66 241 0.0 0.0 0.00 0.00 0.00 82 1015.4
20210728104511 66 241 0.0 0.0 0.00 0.00 0.00 82 1015.5
20210728104011 67 241 0.0 0.0 0.00 0.00 0.00 82 1015.5
20210728103511 67 241 0.0 0.0 0.00 0.00 0.00 82 1015.5
20210728103011 67 241 0.0 0.0 0.00 0.00 0.00 81 1015.7
20210728102512 67 241 0.0 0.0 0.00 0.00 0.00 81 1015.6
20210728102011 67 241 0.0 0.0 0.00 0.00 0.00 81 1015.6
20210728101511 67 241 0.0 0.0 0.00 0.00 0.00 81 1015.6
20210728101011 67 241 0.0 0.0 0.00 0.00 0.00 81 1015.7
20210728100511 67 241 0.0 0.0 0.00 0.00 0.00 80 1015.7
20210728100011 67 241 0.0 0.0 0.00 0.00 0.00 80 1015.7
20210728095511 67 241 0.0 0.0 0.00 0.00 0.00 80 1015.6
20210728095011 67 241 0.0 0.0 0.00 0.00 0.00 80 1015.5
20210728094511 68 241 0.0 0.0 0.00 0.00 0.00 80 1015.5
20210728094011 68 241 0.0 0.0 0.00 0.00 0.00 79 1015.5
20210728093511 68 241 0.0 0.0 0.00 0.00 0.00 79 1015.5
20210728093011 68 241 0.0 0.0 0.00 0.00 0.00 79 1015.6
20210728092511 68 241 0.0 0.0 0.00 0.00 0.00 79 1015.6
20210728092011 68 241 0.0 0.0 0.00 0.00 0.00 79 1015.6
20210728091511 68 241 0.0 0.0 0.00 0.00 0.00 79 1015.6
20210728091011 68 241 0.0 0.0 0.00 0.00 0.00 79 1015.5
20210728090511 68 241 0.0 0.0 0.00 0.00 0.00 79 1015.5
20210728090011 68 241 0.0 0.0 0.00 0.00 0.00 79 1015.6
20210728085511 68 241 0.0 0.0 0.00 0.00 0.00 79 1015.6
20210728085011 68 241 0.0 0.0 0.00 0.00 0.00 79 1015.6
20210728084511 68 269 0.0 1.0 0.00 0.00 0.00 79 1015.6
20210728084011 68 269 0.0 1.0 0.00 0.00 0.00 78 1015.6
20210728083511 68 269 0.0 0.0 0.00 0.00 0.00 78 1015.6
20210728083011 69 269 0.0 0.0 0.00 0.00 0.00 78 1015.6
20210728082511 68 269 0.0 1.0 0.00 0.00 0.00 77 1015.7
20210728082011 69 269 0.0 1.0 0.00 0.00 0.00 77 1015.7
20210728081511 69 262 0.0 1.0 0.00 0.00 0.00 77 1015.7
20210728081011 69 270 0.0 0.0 0.00 0.00 0.00 77 1015.8
20210728080511 69 270 0.0 0.0 0.00 0.00 0.00 77 1015.8
20210728080011 69 270 0.0 0.0 0.00 0.00 0.00 77 1015.8
20210728075511 69 270 0.0 0.0 0.00 0.00 0.00 76 1015.8
20210728075011 69 270 0.0 0.0 0.00 0.00 0.00 76 1015.7
20210728074511 69 270 0.0 0.0 0.00 0.00 0.00 77 1015.8
20210728074011 69 270 0.0 1.0 0.00 0.00 0.00 76 1015.7
20210728073511 69 270 0.0 1.0 0.00 0.00 0.00 76 1015.8
20210728073011 69 270 0.0 0.0 0.00 0.00 0.00 76 1015.6
20210728072511 70 270 0.0 0.0 0.00 0.00 0.00 76 1015.6
20210728072011 70 270 0.0 0.0 0.00 0.00 0.00 76 1015.6
20210728071511 70 270 0.0 1.0 0.00 0.00 0.00 76 1015.6
20210728071011 70 270 0.0 1.0 0.00 0.00 0.00 75 1015.7
20210728070511 70 269 0.0 1.0 0.00 0.00 0.00 75 1015.7
20210728070011 70 269 0.0 1.0 0.00 0.00 0.00 75 1015.7
20210728065511 70 269 0.0 0.0 0.00 0.00 0.00 75 1015.9
20210728065011 70 262 0.0 0.0 0.00 0.00 0.00 75 1015.9
20210728064511 70 262 0.0 0.0 0.00 0.00 0.00 75 1015.8
20210728064011 70 269 0.0 0.0 0.00 0.00 0.00 75 1015.8
20210728063511 70 269 0.0 0.0 0.00 0.00 0.00 75 1015.9
20210728063012 71 269 0.0 0.0 0.00 0.00 0.00 74 1015.8
20210728062511 71 269 0.0 0.0 0.00 0.00 0.00 74 1015.8
20210728062011 71 269 0.0 0.0 0.00 0.00 0.00 74 1015.8
20210728061511 71 269 0.0 0.0 0.00 0.00 0.00 74 1015.8
20210728061011 71 269 0.0 0.0 0.00 0.00 0.00 74 1015.8
20210728060511 71 269 0.0 0.0 0.00 0.00 0.00 74 1015.8
20210728060011 71 269 0.0 0.0 0.00 0.00 0.00 74 1015.9
20210728055511 72 269 0.0 0.0 0.00 0.00 0.00 73 1015.9
20210728055011 72 269 0.0 0.0 0.00 0.00 0.00 73 1016.0
20210728054511 72 269 0.0 0.0 0.00 0.00 0.00 72 1016.0
20210728054011 72 269 0.0 0.0 0.00 0.00 0.00 72 1016.0
20210728053511 72 269 0.0 0.0 0.00 0.00 0.00 72 1016.1
20210728053011 72 269 0.0 0.0 0.00 0.00 0.00 72 1016.1
20210728052511 72 269 0.0 0.0 0.00 0.00 0.00 72 1016.1
20210728052011 73 269 0.0 0.0 0.00 0.00 0.00 71 1016.1
20210728051511 73 269 0.0 0.0 0.00 0.00 0.00 71 1016.2
20210728051011 73 269 0.0 0.0 0.00 0.00 0.00 71 1016.2
20210728050511 73 269 0.0 0.0 0.00 0.00 0.00 70 1016.2
20210728050011 73 269 0.0 0.0 0.00 0.00 0.00 70 1016.1
20210728045511 73 269 0.0 0.0 0.00 0.00 0.00 69 1016.1
20210728045011 74 269 0.0 0.0 0.00 0.00 0.00 69 1016.0
20210728044511 74 269 0.0 1.0 0.00 0.00 0.00 69 1015.8